"Pseudo-MPEC" for C0GW085

Created 2023 Mar 20 10:22:08 UT using Find_Orb

Click here for an explanation of pseudo-MPECs

 
 Astrometry: 
     C0GW085* C2023 03 18u#WC?':m/ST`xu$t^3KBB;gG;^8ZFGU#$SB,m6oF,J,^EeX^R)txV00
     C0GW085  C2023 03 18Gv:+4N+[*/:]QF*AstrometryAo*'skesVxWb'77Z_3ND!P6,9PCV00
     C0GW085  C2023 03 18jP'fF2G?W38g1oredacted;Ol-fLFSTjTWtk=3AaXrBDrTk7eXPRV00
     C0GW085  C2023 03 18Cy(6`H,qw0(qUE_Q,=click#);u]`2IsU],`#cbt`L1(!pY.g\7(V00
     C0GW085 KC2023 03 18.44652 12 44 37.54 -01 50 26.9    ~3IC7 22.1 RoNEOCP291
     C0GW085 KC2023 03 18.45863 12 44 37.41 -01 49 35.0    ~3IC7 22.8 RoNEOCP291
     C0GW085 KC2023 03 18.47082 12 44 37.33 -01 48 41.9    ~3IC7 22.9 RoNEOCP291
     C0GW085 |C2023 03 19WNCCQ`aXVD?2*BuFp[sLGUM=45_pg'/dJ`dG9@FXS*here(+J$ve807
     C0GW085 |C2023 03 19YI\Gfor_Aq?cxNM5.g6G-6Y:u3w];^3q\u^5;!giNiX6VI79p24]807
     C0GW085 |C2023 03 19/:tJx-*oD!g?_4`CXh36Yi9paSAtg$)(S.Z`l**mq$,NlFqJi*;H807
     C0GW085 |C2023 03 20NT5-9curmWKUkeGupoGN!u@HFE7+`9Y:WHHK2wCY.nhyY5u)*B1`807
     C0GW085 |C2023 03 20qR.=wyH]8[QI^StJP=)8eq8E`g(Ec:+ZlmQClTZ^51-se(Coy.eQ807
     C0GW085 |C2023 03 2008g87P,Bdx5explanation;u[o/?_uL2:.V/.6qshq]Z8OqB\m,4807
     C0GW085 KC2023 03 20.33574 12 44 28.55 +00 22 06.7    ~3K97 22.0 RoNEOCP291
     C0GW085 KC2023 03 20.34347 12 44 28.43 +00 22 38.9    ~3K97       oNEOCP291

Station data:
(291) LPL/Spacewatch II  (N31.961669 W111.599905)  US/Arizona.  Observers J.
   V. Scotti, R. S. McMillan. 1.8-m f/2.7 reflector + CCD.
(807) Cerro Tololo Observatory, La Serena  (S30.169133 W70.805900)  Chile.
   Observer R. Holmes. 0.61-m f/6.5 astrograph + CCD.
(V00) Kitt Peak-Bok  (N31.963125 W111.600190)  US/Arizona.  Observers T. A.
   Pruyne, B. M. Africano, E. J. Christensen, G. A. Farneth, D. C. Fuls, A.
   R. Gibbs, A. D. Grauer, H. Gröller, J. A. Johnson, R. A. Kowalski, S. M.
   Larson, G. J. Leonard, D. Rankin, R. L. Seaman, F. C. Shelly, K. W.
   Wierzchoś. 2.25-m reflector + CCD.

Orbital elements:  C0GW085
   Perihelion 2023 Jan 10.40466 +/- 0.193 TT =  9:42:42 (JD 2459954.90466)
Epoch 2023 Mar 20.0 TT = JDT 2460023.5   Earth MOID: 0.2857      AutoNEOCP
M  15.20664255 +/- 0.8              (J2000 ecliptic)
n   0.22168622 +/- 0.012            Peri.  300.95009 +/- 0.15
a   2.70381458 +/- 0.0982           Node   179.61993 +/- 0.051
e   0.5863666 +/- 0.0144            Incl.   27.36916 +/- 0.40
P   4.45                   H 22.70  G  0.15   U  9.8
q 1.11838785 +/- 0.00223    Q 4.28924130 +/- 0.195
From 15 observations 2023 Mar. 18-20 (46.9 hr); mean residual 0".22
Residuals in arcseconds: 
230318 V00  .03+  .02-    230318 291  .29-  .33-    230320 807  .17+  .18+    
230318 V00  .14+  .05-    230318 291  .34+  .21+    230320 807  .06+  .02-    
230318 V00  .02+  .05-    230319 807  .66-  .27+    230320 807  .05+  .03+    
230318 V00  .12+  .26+    230319 807  .08+  .15-    230320 291  .01+  .30-    
230318 291  .23-  .01-    230319 807  .36+  .12-    230320 291  .14-  .16+    

Ephemerides (geocentric):
Date (UTC) HH   RA             Dec           delta  r     elong  mag " sig PA
---- --------  ------------   ------------  ------ ------ -----  --- --------
2023 03 20 10  12 44 27.929   +00 27 50.39  .40238 1.3920 168.2 22.1 .049  53
2023 03 20 11  12 44 27.657   +00 30 41.01  .40261 1.3923 168.2 22.1 .058  32
2023 03 20 12  12 44 27.382   +00 33 31.44  .40284 1.3926 168.2 22.1 .073  17
2023 03 20 13  12 44 27.106   +00 36 21.68  .40308 1.3929 168.3 22.1 .092   8
2023 03 20 14  12 44 26.828   +00 39 11.71  .40331 1.3931 168.3 22.1 .113   1
2023 03 20 15  12 44 26.548   +00 42 01.55  .40354 1.3934 168.3 22.1 .136 177
2023 03 20 16  12 44 26.266   +00 44 51.20  .40377 1.3937 168.4 22.1 .161 174
2023 03 20 17  12 44 25.981   +00 47 40.64  .40401 1.3940 168.4 22.1 .187 171
2023 03 20 18  12 44 25.695   +00 50 29.89  .40424 1.3942 168.5 22.1 .214 170
2023 03 20 19  12 44 25.407   +00 53 18.95  .40447 1.3945 168.5 22.1 .242 168
2023 03 20 20  12 44 25.117   +00 56 07.80  .40471 1.3948 168.5 22.1 .270 167
2023 03 20 21  12 44 24.825   +00 58 56.45  .40495 1.3951 168.6 22.1 .300 166
2023 03 20 22  12 44 24.531   +01 01 44.91  .40518 1.3954 168.6 22.1 .331 165
2023 03 20 23  12 44 24.235   +01 04 33.17  .40542 1.3956 168.6 22.1 .362 165
2023 03 21 00  12 44 23.938   +01 07 21.23  .40566 1.3959 168.7 22.1 .395 164
2023 03 21 01  12 44 23.638   +01 10 09.09  .40589 1.3962 168.7 22.1 .428 164
2023 03 21 02  12 44 23.337   +01 12 56.75  .40613 1.3965 168.7 22.1 .462 163
2023 03 21 03  12 44 23.033   +01 15 44.21  .40637 1.3968 168.8 22.1 .497 163
2023 03 21 04  12 44 22.728   +01 18 31.47  .40661 1.3970 168.8 22.1 .533 163
2023 03 21 05  12 44 22.421   +01 21 18.53  .40685 1.3973 168.8 22.1 .569 162
2023 03 21 06  12 44 22.112   +01 24 05.38  .40709 1.3976 168.9 22.1 .607 162
2023 03 21 07  12 44 21.801   +01 26 52.04  .40733 1.3979 168.9 22.1 .645 162
2023 03 21 08  12 44 21.489   +01 29 38.50  .40757 1.3982 168.9 22.1 .683 162
2023 03 21 09  12 44 21.175   +01 32 24.75  .40781 1.3984 168.9 22.1 .723 161
2023 03 21 10  12 44 20.859   +01 35 10.81  .40805 1.3987 169.0 22.1 .764 161
2023 03 21 11  12 44 20.541   +01 37 56.66  .40830 1.3990 169.0 22.1 .805 161
2023 03 21 12  12 44 20.221   +01 40 42.31  .40854 1.3993 169.0 22.1 .847 161
2023 03 21 13  12 44 19.900   +01 43 27.75  .40878 1.3996 169.1 22.1 .889 161
2023 03 21 14  12 44 19.577   +01 46 13.00  .40903 1.3998 169.1 22.1 .933 161
2023 03 21 15  12 44 19.252   +01 48 58.04  .40927 1.4001 169.1 22.1 .977 161
2023 03 21 16  12 44 18.925   +01 51 42.87  .40952 1.4004 169.1 22.1 1.02 161
2023 03 21 17  12 44 18.597   +01 54 27.51  .40977 1.4007 169.2 22.1 1.07 160
2023 03 21 18  12 44 18.267   +01 57 11.94  .41001 1.4010 169.2 22.1 1.11 160
2023 03 21 19  12 44 17.936   +01 59 56.16  .41026 1.4013 169.2 22.1 1.16 160
2023 03 21 20  12 44 17.602   +02 02 40.19  .41051 1.4015 169.3 22.1 1.21 160
2023 03 21 21  12 44 17.267   +02 05 24.00  .41075 1.4018 169.3 22.1 1.26 160
2023 03 21 22  12 44 16.931   +02 08 07.62  .41100 1.4021 169.3 22.1 1.31 160
2023 03 21 23  12 44 16.593   +02 10 51.03  .41125 1.4024 169.3 22.1 1.36 160
2023 03 22 00  12 44 16.253   +02 13 34.23  .41150 1.4027 169.3 22.1 1.41 160
2023 03 22 01  12 44 15.911   +02 16 17.23  .41175 1.4029 169.4 22.1 1.46 160
2023 03 22 02  12 44 15.568   +02 19 00.02  .41200 1.4032 169.4 22.1 1.51 160
2023 03 22 03  12 44 15.224   +02 21 42.61  .41225 1.4035 169.4 22.1 1.56 160
2023 03 22 04  12 44 14.877   +02 24 24.99  .41250 1.4038 169.4 22.1 1.61 160
2023 03 22 05  12 44 14.529   +02 27 07.16  .41276 1.4041 169.5 22.1 1.67 160
2023 03 22 06  12 44 14.180   +02 29 49.13  .41301 1.4044 169.5 22.1 1.72 160
2023 03 22 07  12 44 13.829   +02 32 30.89  .41326 1.4046 169.5 22.1 1.78 160
2023 03 22 08  12 44 13.477   +02 35 12.45  .41352 1.4049 169.5 22.1 1.83 160
2023 03 22 09  12 44 13.123   +02 37 53.80  .41377 1.4052 169.5 22.1 1.89 160